Time,TemperatureF,DewpointF,PressureIn,WindDirection,WindDirectionDegrees,WindSpeedMPH,WindSpeedGustMPH,Humidity,HourlyPrecipIn,Conditions,Clouds,dailyrainin,SolarRadiationWatts/m^2,SoftwareType,DateUTC
2013-02-22 00:00:00,72.2,66.4,30.07,SE,126,3.9,6.9,82,0.00,CLR,,0.00,0.0,WeatherDisplay:10.37,2013-02-22 05:00:00,
2013-02-22 00:05:00,72.3,66.5,30.07,ESE,112,1.8,4.6,82,0.00,CLR,,0.00,0.0,WeatherDisplay:10.37,2013-02-22 05:05:00,
2013-02-22 00:10:00,72.2,66.4,30.07,SSE,151,3.8,4.6,82,0.00,CLR,,0.00,0.0,WeatherDisplay:10.37,2013-02-22 05:10:00,
2013-02-22 00:15:00,72.2,66.4,30.06,SE,145,1.1,6.9,82,0.00,CLR,,0.00,0.0,WeatherDisplay:10.37,2013-02-22 05:15:00,
2013-02-22 00:20:00,72.1,65.9,30.06,ESE,113,2.6,4.6,81,0.00,CLR,,0.00,0.0,WeatherDisplay:10.37,2013-02-22 05:20:00,
2013-02-22 00:25:00,72.1,66.3,30.06,SE,143,2.9,8.1,82,0.00,CLR,,0.00,0.0,WeatherDisplay:10.37,2013-02-22 05:25:00,
2013-02-22 00:30:00,72.1,66.3,30.06,SE,134,4.6,6.9,82,0.00,CLR,,0.00,0.0,WeatherDisplay:10.37,2013-02-22 05:30:00,
2013-02-22 00:35:00,72.1,66.3,30.06,ESE,118,0.1,1.1,82,0.00,CLR,,0.00,0.0,WeatherDisplay:10.37,2013-02-22 05:35:00,
2013-02-22 00:40:00,72.1,66.3,30.06,SE,144,4.6,6.0,82,0.00,CLR,,0.00,0.0,WeatherDisplay:10.37,2013-02-22 05:40:00,
2013-02-22 00:45:00,72.1,66.3,30.06,SSE,155,1.8,4.0,82,0.00,CLR,,0.00,0.0,WeatherDisplay:10.37,2013-02-22 05:45:00,
2013-02-22 00:50:00,72.0,66.2,30.06,ESE,106,2.4,4.6,82,0.00,CLR,,0.00,0.0,WeatherDisplay:10.37,2013-02-22 05:50:00,
2013-02-22 00:55:00,72.0,65.8,30.06,ESE,112,2.4,3.5,81,0.00,CLR,,0.00,0.0,WeatherDisplay:10.37,2013-02-22 05:55:00,
2013-02-22 01:00:00,72.1,66.3,30.06,East,86,3.0,4.6,82,0.00,CLR,,0.00,0.0,WeatherDisplay:10.37,2013-02-22 06:00:00,
2013-02-22 01:05:00,72.1,66.3,30.05,ESE,119,1.7,4.6,82,0.00,CLR,,0.00,0.0,WeatherDisplay:10.37,2013-02-22 06:05:00,
2013-02-22 01:10:00,72.0,66.2,30.06,ESE,116,4.2,10.4,82,0.00,CLR,,0.00,0.0,WeatherDisplay:10.37,2013-02-22 06:10:00,
2013-02-22 01:15:00,72.0,66.2,30.06,ESE,117,1.7,7.0,82,0.00,CLR,,0.00,0.0,WeatherDisplay:10.37,2013-02-22 06:15:00,
2013-02-22 01:20:00,72.0,66.2,30.06,ESE,110,0.1,2.0,82,0.00,CLR,,0.00,0.0,WeatherDisplay:10.37,2013-02-22 06:20:00,
2013-02-22 01:25:00,72.0,66.2,30.06,ESE,109,2.2,6.9,82,0.00,CLR,,0.00,0.0,WeatherDisplay:10.37,2013-02-22 06:25:00,
2013-02-22 01:30:00,72.0,66.2,30.06,ESE,121,1.7,4.0,82,0.00,CLR,,0.00,0.0,WeatherDisplay:10.37,2013-02-22 06:30:00,
2013-02-22 01:35:00,72.0,66.2,30.06,SE,130,0.9,4.6,82,0.00,CLR,,0.00,0.0,WeatherDisplay:10.37,2013-02-22 06:35:00,
2013-02-22 01:40:00,72.0,66.6,30.06,SE,132,1.3,5.8,83,0.00,CLR,,0.00,0.0,WeatherDisplay:10.37,2013-02-22 06:40:00,
2013-02-22 01:45:00,71.9,66.5,30.05,ESE,115,1.2,3.5,83,0.00,CLR,,0.00,0.0,WeatherDisplay:10.37,2013-02-22 06:45:00,
2013-02-22 01:50:00,71.8,66.4,30.05,SSE,149,2.0,4.6,83,0.00,CLR,,0.00,0.0,WeatherDisplay:10.37,2013-02-22 06:50:00,
2013-02-22 01:55:00,71.8,66.4,30.05,SE,140,0.2,3.5,83,0.00,CLR,,0.00,0.0,WeatherDisplay:10.37,2013-02-22 06:55:00,
2013-02-22 02:00:00,71.8,66.7,30.05,South,169,0.9,6.0,84,0.00,CLR,,0.00,0.0,WeatherDisplay:10.37,2013-02-22 07:00:00,
2013-02-22 02:05:00,71.8,66.7,30.05,ESE,112,1.3,1.3,84,0.00,CLR,,0.00,0.0,WeatherDisplay:10.37,2013-02-22 07:05:00,
2013-02-22 02:10:00,71.8,66.7,30.05,East,97,0.8,2.3,84,0.00,CLR,,0.00,0.0,WeatherDisplay:10.37,2013-02-22 07:10:00,
2013-02-22 02:15:00,71.9,66.8,30.04,East,92,2.6,6.0,84,0.00,CLR,,0.00,0.0,WeatherDisplay:10.37,2013-02-22 07:15:00,
2013-02-22 02:20:00,71.9,66.8,30.04,SE,125,0.0,4.6,84,0.00,CLR,,0.00,0.0,WeatherDisplay:10.37,2013-02-22 07:20:00,
2013-02-22 02:25:00,72.0,66.9,30.03,ESE,118,1.5,3.5,84,0.00,CLR,,0.00,0.0,WeatherDisplay:10.37,2013-02-22 07:25:00,
2013-02-22 02:30:00,72.0,66.6,30.03,SE,135,2.5,5.8,83,0.00,CLR,,0.00,0.0,WeatherDisplay:10.37,2013-02-22 07:30:00,
2013-02-22 02:35:00,72.0,66.6,30.03,ESE,110,1.8,4.6,83,0.00,CLR,,0.00,0.0,WeatherDisplay:10.37,2013-02-22 07:35:00,
2013-02-22 02:40:00,72.1,66.6,30.03,SE,146,2.5,3.5,83,0.00,CLR,,0.00,0.0,WeatherDisplay:10.37,2013-02-22 07:40:00,
2013-02-22 02:45:00,72.1,66.6,30.03,ESE,118,5.0,8.1,83,0.00,CLR,,0.00,0.0,WeatherDisplay:10.37,2013-02-22 07:45:00,
2013-02-22 02:50:00,72.1,66.3,30.03,ESE,121,0.3,4.6,82,0.00,CLR,,0.00,0.0,WeatherDisplay:10.37,2013-02-22 07:50:00,
2013-02-22 02:55:00,72.1,66.3,30.03,SE,125,3.3,6.9,82,0.00,CLR,,0.00,0.0,WeatherDisplay:10.37,2013-02-22 07:55:00,
2013-02-22 03:00:00,72.1,65.9,30.03,SE,137,2.5,7.0,81,0.00,CLR,,0.00,0.0,WeatherDisplay:10.37,2013-02-22 08:00:00,
2013-02-22 03:05:00,72.1,65.9,30.03,SE,146,2.2,3.5,81,0.00,CLR,,0.00,0.0,WeatherDisplay:10.37,2013-02-22 08:05:00,
2013-02-22 03:10:00,72.1,65.9,30.03,SE,137,3.9,8.1,81,0.00,CLR,,0.00,0.0,WeatherDisplay:10.37,2013-02-22 08:10:00,
2013-02-22 03:15:00,72.0,65.8,30.03,ESE,120,3.1,8.1,81,0.00,CLR,,0.00,0.0,WeatherDisplay:10.37,2013-02-22 08:15:00,
2013-02-22 03:20:00,72.1,65.9,30.03,SSE,154,3.3,4.6,81,0.00,CLR,,0.00,0.0,WeatherDisplay:10.37,2013-02-22 08:20:00,
2013-02-22 03:25:00,72.1,65.9,30.03,ESE,107,2.3,4.6,81,0.00,CLR,,0.00,0.0,WeatherDisplay:10.37,2013-02-22 08:25:00,
2013-02-22 03:30:00,72.0,65.8,30.03,SE,125,1.7,4.6,81,0.00,CLR,,0.00,0.0,WeatherDisplay:10.37,2013-02-22 08:30:00,
2013-02-22 03:35:00,72.0,65.8,30.03,SE,124,2.6,5.8,81,0.00,CLR,,0.00,0.0,WeatherDisplay:10.37,2013-02-22 08:35:00,
2013-02-22 03:40:00,71.9,65.8,30.03,ESE,119,2.6,5.8,81,0.00,CLR,,0.00,0.0,WeatherDisplay:10.37,2013-02-22 08:40:00,
2013-02-22 03:45:00,71.9,65.8,30.03,ESE,117,1.2,3.5,81,0.00,CLR,,0.00,0.0,WeatherDisplay:10.37,2013-02-22 08:45:00,
2013-02-22 03:50:00,71.8,65.7,30.04,SE,134,1.8,5.8,81,0.00,CLR,,0.00,0.0,WeatherDisplay:10.37,2013-02-22 08:50:00,
2013-02-22 03:55:00,71.8,65.7,30.04,ESE,105,1.8,4.6,81,0.00,CLR,,0.00,0.0,WeatherDisplay:10.37,2013-02-22 08:55:00,
2013-02-22 04:00:00,71.8,66.0,30.04,ESE,123,1.5,4.6,82,0.00,CLR,,0.00,0.0,WeatherDisplay:10.37,2013-02-22 09:00:00,
2013-02-22 04:05:00,71.8,66.0,30.04,South,174,0.4,0.0,82,0.00,CLR,,0.00,0.0,WeatherDisplay:10.37,2013-02-22 09:05:00,
2013-02-22 04:10:00,71.7,66.3,30.04,SE,126,0.6,3.5,83,0.00,CLR,,0.00,0.0,WeatherDisplay:10.37,2013-02-22 09:10:00,
2013-02-22 04:15:00,71.7,66.6,30.04,ESE,109,1.1,4.6,84,0.00,CLR,,0.00,0.0,WeatherDisplay:10.37,2013-02-22 09:15:00,
2013-02-22 04:20:00,71.7,66.6,30.04,SE,133,1.8,5.0,84,0.00,CLR,,0.00,0.0,WeatherDisplay:10.37,2013-02-22 09:20:00,
2013-02-22 04:25:00,71.7,66.6,30.04,East,101,1.0,2.3,84,0.00,CLR,,0.00,0.0,WeatherDisplay:10.37,2013-02-22 09:25:00,
2013-02-22 04:30:00,71.6,66.5,30.04,SE,137,0.0,0.0,84,0.00,CLR,,0.00,0.0,WeatherDisplay:10.37,2013-02-22 09:30:00,
2013-02-22 04:35:00,71.6,66.8,30.04,SE,137,0.1,1.0,85,0.00,CLR,,0.00,0.0,WeatherDisplay:10.37,2013-02-22 09:35:00,
2013-02-22 04:40:00,71.6,66.8,30.04,SE,129,0.0,3.5,85,0.00,CLR,,0.00,0.0,WeatherDisplay:10.37,2013-02-22 09:40:00,
2013-02-22 04:45:00,71.7,66.9,30.04,SE,138,2.4,4.6,85,0.00,CLR,,0.00,0.0,WeatherDisplay:10.37,2013-02-22 09:45:00,
2013-02-22 04:50:00,71.8,67.0,30.04,East,90,0.7,3.5,85,0.00,CLR,,0.00,0.0,WeatherDisplay:10.37,2013-02-22 09:50:00,
2013-02-22 04:55:00,71.8,67.0,30.04,SSE,152,0.5,4.0,85,0.00,CLR,,0.00,0.0,WeatherDisplay:10.37,2013-02-22 09:55:00,
2013-02-22 05:00:00,71.8,67.0,30.04,ESE,107,1.6,3.5,85,0.00,CLR,,0.00,0.0,WeatherDisplay:10.37,2013-02-22 10:00:00,
2013-02-22 05:05:00,71.9,67.1,30.04,ESE,103,1.7,4.6,85,0.00,CLR,,0.00,0.0,WeatherDisplay:10.37,2013-02-22 10:05:00,
2013-02-22 05:10:00,71.9,67.5,30.04,ESE,111,2.3,3.5,86,0.00,CLR,,0.00,0.0,WeatherDisplay:10.37,2013-02-22 10:10:00,
2013-02-22 05:15:00,72.0,67.6,30.04,ESE,121,0.4,3.5,86,0.00,CLR,,0.00,0.0,WeatherDisplay:10.37,2013-02-22 10:15:00,
2013-02-22 05:20:00,72.1,67.3,30.04,ESE,109,0.3,0.0,85,0.00,CLR,,0.00,0.0,WeatherDisplay:10.37,2013-02-22 10:20:00,
2013-02-22 05:25:00,72.2,67.4,30.05,SE,138,1.7,6.9,85,0.00,CLR,,0.00,0.0,WeatherDisplay:10.37,2013-02-22 10:25:00,
2013-02-22 05:30:00,72.2,67.4,30.05,ESE,107,2.7,9.2,85,0.00,CLR,,0.00,0.0,WeatherDisplay:10.37,2013-02-22 10:30:00,
2013-02-22 05:35:00,72.3,67.9,30.05,ESE,111,0.1,2.3,86,0.00,CLR,,0.00,0.0,WeatherDisplay:10.37,2013-02-22 10:35:00,
2013-02-22 05:40:00,72.4,67.6,30.05,ESE,116,0.0,0.0,85,0.00,CLR,,0.00,0.0,WeatherDisplay:10.37,2013-02-22 10:40:00,
2013-02-22 05:45:00,72.3,67.5,30.05,ESE,106,0.7,3.5,85,0.00,CLR,,0.00,0.0,WeatherDisplay:10.37,2013-02-22 10:45:00,
2013-02-22 05:50:00,72.4,67.3,30.06,ESE,104,0.0,2.3,84,0.00,CLR,,0.00,0.0,WeatherDisplay:10.37,2013-02-22 10:50:00,
2013-02-22 05:55:00,72.3,67.2,30.06,ESE,110,0.0,0.0,84,0.00,CLR,,0.00,0.0,WeatherDisplay:10.37,2013-02-22 10:55:00,
2013-02-22 06:00:00,72.3,67.5,30.06,SE,125,0.0,0.0,85,0.00,CLR,,0.00,0.0,WeatherDisplay:10.37,2013-02-22 11:00:00,
2013-02-22 06:05:00,72.2,67.4,30.06,ESE,121,3.4,6.9,85,0.00,CLR,,0.00,0.0,WeatherDisplay:10.37,2013-02-22 11:05:00,
2013-02-22 06:10:00,72.2,67.4,30.06,ESE,122,1.6,3.5,85,0.00,CLR,,0.00,0.0,WeatherDisplay:10.37,2013-02-22 11:10:00,
2013-02-22 06:15:00,72.2,67.4,30.06,SE,131,3.0,5.8,85,0.00,CLR,,0.00,0.0,WeatherDisplay:10.37,2013-02-22 11:15:00,
2013-02-22 06:20:00,72.2,67.4,30.07,ESE,108,3.0,5.8,85,0.00,OVC,,0.00,0.0,WeatherDisplay:10.37,2013-02-22 11:20:00,
2013-02-22 06:25:00,72.4,67.6,30.07,ESE,117,1.5,5.8,85,0.00,OVC,,0.00,0.0,WeatherDisplay:10.37,2013-02-22 11:25:00,
2013-02-22 06:30:00,72.7,67.9,30.07,ESE,111,1.8,3.5,85,0.00,OVC,,0.00,0.0,WeatherDisplay:10.37,2013-02-22 11:30:00,
2013-02-22 06:35:00,72.8,68.0,30.07,ESE,109,4.1,6.9,85,0.00,OVC,,0.00,0.0,WeatherDisplay:10.37,2013-02-22 11:35:00,
2013-02-22 06:40:00,72.8,67.7,30.08,SE,124,1.3,3.5,84,0.00,OVC,,0.00,0.0,WeatherDisplay:10.37,2013-02-22 11:40:00,
2013-02-22 06:45:00,72.8,67.7,30.08,ESE,107,1.0,3.5,84,0.00,OVC,,0.00,0.0,WeatherDisplay:10.37,2013-02-22 11:45:00,
2013-02-22 06:50:00,72.7,67.6,30.08,ESE,104,4.2,6.9,84,0.00,OVC,,0.00,0.0,WeatherDisplay:10.37,2013-02-22 11:50:00,
2013-02-22 06:55:00,72.6,67.5,30.08,SSE,159,1.7,3.5,84,0.00,CLR,,0.00,9.0,WeatherDisplay:10.37,2013-02-22 11:55:00,
2013-02-22 07:00:00,72.6,67.5,30.08,ESE,113,0.0,2.3,84,0.00,CLR,,0.00,30.0,WeatherDisplay:10.37,2013-02-22 12:00:00,
2013-02-22 07:05:00,72.7,67.9,30.08,ESE,111,3.6,5.8,85,0.00,FEW,,0.00,23.0,WeatherDisplay:10.37,2013-02-22 12:05:00,
2013-02-22 07:10:00,72.9,67.8,30.08,ESE,123,2.1,6.9,84,0.00,SCT,,0.00,26.0,WeatherDisplay:10.37,2013-02-22 12:10:00,
2013-02-22 07:15:00,73.1,68.0,30.08,ESE,119,2.7,3.5,84,0.00,SCT,,0.00,33.0,WeatherDisplay:10.37,2013-02-22 12:15:00,
2013-02-22 07:20:00,73.5,68.4,30.08,SE,129,0.3,0.0,84,0.00,SCT,,0.00,40.0,WeatherDisplay:10.37,2013-02-22 12:20:00,
2013-02-22 07:25:00,73.8,68.7,30.08,ESE,111,1.6,3.5,84,0.00,SCT,,0.00,40.0,WeatherDisplay:10.37,2013-02-22 12:25:00,
2013-02-22 07:30:00,73.9,68.4,30.09,SE,136,0.8,3.5,83,0.00,BKN,,0.00,26.0,WeatherDisplay:10.37,2013-02-22 12:30:00,
2013-02-22 07:35:00,73.9,68.4,30.09,SE,128,0.0,0.0,83,0.00,FEW,,0.00,58.0,WeatherDisplay:10.37,2013-02-22 12:35:00,
2013-02-22 07:40:00,73.9,68.4,30.09,SE,129,0.4,3.5,83,0.00,FEW,,0.00,95.0,WeatherDisplay:10.37,2013-02-22 12:40:00,
2013-02-22 07:45:00,73.8,68.3,30.09,SE,146,1.8,7.0,83,0.00,BKN,,0.00,39.0,WeatherDisplay:10.37,2013-02-22 12:45:00,
2013-02-22 07:50:00,73.8,68.7,30.09,SE,134,0.9,3.5,84,0.00,CLR,,0.00,149.0,WeatherDisplay:10.37,2013-02-22 12:50:00,
2013-02-22 07:55:00,74.1,69.0,30.09,ESE,107,2.5,5.8,84,0.00,SCT,,0.00,120.0,WeatherDisplay:10.37,2013-02-22 12:55:00,
2013-02-22 08:00:00,74.4,69.2,30.09,ENE,76,2.7,5.8,84,0.00,SCT,,0.00,70.0,WeatherDisplay:10.37,2013-02-22 13:00:00,
2013-02-22 08:05:00,74.5,69.0,30.09,SE,126,4.5,9.2,83,0.00,BKN,,0.00,54.0,WeatherDisplay:10.37,2013-02-22 13:05:00,
2013-02-22 08:10:00,74.5,69.3,30.09,ESE,110,0.0,3.5,84,0.00,BKN,,0.00,40.0,WeatherDisplay:10.37,2013-02-22 13:10:00,
2013-02-22 08:15:00,74.6,69.4,30.09,ESE,123,0.7,3.5,84,0.00,BKN,,0.00,98.0,WeatherDisplay:10.37,2013-02-22 13:15:00,
2013-02-22 08:20:00,75.3,70.1,30.09,SE,125,1.0,3.5,84,0.00,SCT,,0.00,279.0,WeatherDisplay:10.37,2013-02-22 13:20:00,
2013-02-22 08:25:00,76.1,69.8,30.09,ESE,115,4.0,9.2,81,0.00,CLR,,0.00,279.0,WeatherDisplay:10.37,2013-02-22 13:25:00,
2013-02-22 08:30:00,76.8,70.5,30.09,SE,134,1.4,4.6,81,0.00,CLR,,0.00,301.0,WeatherDisplay:10.37,2013-02-22 13:30:00,
2013-02-22 08:35:00,77.4,70.4,30.10,South,190,1.6,6.9,79,0.00,CLR,,0.00,316.0,WeatherDisplay:10.37,2013-02-22 13:35:00,
2013-02-22 08:40:00,78.0,70.6,30.10,SE,136,2.2,5.0,78,0.00,CLR,,0.00,283.0,WeatherDisplay:10.37,2013-02-22 13:40:00,
2013-02-22 08:45:00,78.0,70.2,30.10,SE,124,2.7,5.8,77,0.00,FEW,,0.00,153.0,WeatherDisplay:10.37,2013-02-22 13:45:00,
2013-02-22 08:50:00,77.6,70.2,30.10,SE,130,3.6,9.2,78,0.00,SCT,,0.00,207.0,WeatherDisplay:10.37,2013-02-22 13:50:00,
2013-02-22 08:55:00,77.3,70.3,30.10,ESE,112,2.1,4.6,79,0.00,SCT,,0.00,163.0,WeatherDisplay:10.37,2013-02-22 13:55:00,
2013-02-22 09:00:00,77.1,70.5,30.10,South,175,1.9,5.8,80,0.00,BKN,,0.00,151.0,WeatherDisplay:10.37,2013-02-22 14:00:00,
2013-02-22 09:05:00,77.0,70.4,30.10,SSE,150,1.1,4.6,80,0.00,BKN,,0.00,163.0,WeatherDisplay:10.37,2013-02-22 14:05:00,
2013-02-22 09:10:00,77.0,70.4,30.10,SE,127,2.5,8.1,80,0.00,BKN,,0.00,167.0,WeatherDisplay:10.37,2013-02-22 14:10:00,
2013-02-22 09:15:00,77.3,70.6,30.10,SE,126,4.4,9.2,80,0.00,SCT,,0.00,318.0,WeatherDisplay:10.37,2013-02-22 14:15:00,
2013-02-22 09:20:00,77.8,70.8,30.11,SE,137,5.5,11.5,79,0.00,CLR,,0.00,526.0,WeatherDisplay:10.37,2013-02-22 14:20:00,
2013-02-22 09:25:00,78.1,70.7,30.11,ESE,111,4.3,8.1,78,0.00,CLR,,0.00,176.0,WeatherDisplay:10.37,2013-02-22 14:25:00,
2013-02-22 09:30:00,78.3,71.2,30.11,SSE,167,3.6,4.6,79,0.00,FEW,,0.00,596.0,WeatherDisplay:10.37,2013-02-22 14:30:00,
2013-02-22 09:35:00,79.0,71.2,30.11,East,98,3.8,8.1,77,0.00,FEW,,0.00,621.0,WeatherDisplay:10.37,2013-02-22 14:35:00,
2013-02-22 09:40:00,79.8,71.9,30.11,ESE,115,2.3,4.6,77,0.00,CLR,,0.00,621.0,WeatherDisplay:10.37,2013-02-22 14:40:00,
2013-02-22 09:45:00,80.4,71.7,30.11,ESE,107,2.6,3.5,75,0.00,CLR,,0.00,631.0,WeatherDisplay:10.37,2013-02-22 14:45:00,
2013-02-22 09:50:00,80.7,71.2,30.11,South,169,4.7,8.1,73,0.00,CLR,,0.00,172.0,WeatherDisplay:10.37,2013-02-22 14:50:00,
2013-02-22 09:55:00,80.6,71.9,30.11,SSW,197,4.3,5.8,75,0.00,FEW,,0.00,596.0,WeatherDisplay:10.37,2013-02-22 14:55:00,
2013-02-22 10:00:00,80.7,71.2,30.11,South,173,3.7,4.6,73,0.00,FEW,,0.00,647.0,WeatherDisplay:10.37,2013-02-22 15:00:00,
2013-02-22 10:05:00,80.5,71.0,30.11,SE,128,3.6,10.4,73,0.00,CLR,,0.00,125.0,WeatherDisplay:10.37,2013-02-22 15:05:00,
2013-02-22 10:10:00,79.7,70.7,30.11,South,190,6.7,12.7,74,0.00,SCT,,0.00,209.0,WeatherDisplay:10.37,2013-02-22 15:10:00,
2013-02-22 10:15:00,79.1,70.9,30.11,SSW,202,2.3,11.5,76,0.00,BKN,,0.00,149.0,WeatherDisplay:10.37,2013-02-22 15:15:00,
2013-02-22 10:20:00,78.9,70.7,30.11,South,171,5.4,15.0,76,0.00,BKN,,0.00,292.0,WeatherDisplay:10.37,2013-02-22 15:20:00,
2013-02-22 10:25:00,78.9,71.1,30.11,SSE,166,7.2,11.5,77,0.00,SCT,,0.00,773.0,WeatherDisplay:10.37,2013-02-22 15:25:00,
2013-02-22 10:30:00,78.8,70.6,30.11,SSE,157,6.0,10.4,76,0.00,SCT,,0.00,246.0,WeatherDisplay:10.37,2013-02-22 15:30:00,
2013-02-22 10:35:00,78.7,70.5,30.11,SSW,192,4.5,11.5,76,0.00,SCT,,0.00,278.0,WeatherDisplay:10.37,2013-02-22 15:35:00,
2013-02-22 10:40:00,78.8,71.4,30.11,South,175,5.3,11.5,78,0.00,BKN,,0.00,383.0,WeatherDisplay:10.37,2013-02-22 15:40:00,
2013-02-22 10:45:00,78.9,71.1,30.11,SW,219,3.5,5.8,77,0.00,BKN,,0.00,292.0,WeatherDisplay:10.37,2013-02-22 15:45:00,
2013-02-22 10:50:00,79.2,71.4,30.11,South,176,4.2,6.9,77,0.00,SCT,,0.00,292.0,WeatherDisplay:10.37,2013-02-22 15:50:00,
2013-02-22 10:55:00,79.6,71.4,30.11,SSW,192,4.0,8.1,76,0.00,SCT,,0.00,784.0,WeatherDisplay:10.37,2013-02-22 15:55:00,
2013-02-22 11:00:00,80.2,71.6,30.11,East,98,3.8,9.2,75,0.00,FEW,,0.00,842.0,WeatherDisplay:10.37,2013-02-22 16:00:00,
2013-02-22 11:05:00,80.7,72.0,30.11,SSE,159,1.5,6.9,75,0.00,CLR,,0.00,842.0,WeatherDisplay:10.37,2013-02-22 16:05:00,
2013-02-22 11:10:00,81.1,72.0,30.11,SE,126,4.6,9.2,74,0.00,CLR,,0.00,831.0,WeatherDisplay:10.37,2013-02-22 16:10:00,
2013-02-22 11:15:00,81.7,72.2,30.11,SE,140,4.5,5.0,73,0.00,CLR,,0.00,842.0,WeatherDisplay:10.37,2013-02-22 16:15:00,
2013-02-22 11:20:00,82.0,71.7,30.11,SW,219,8.4,11.5,71,0.00,CLR,,0.00,800.0,WeatherDisplay:10.37,2013-02-22 16:20:00,
2013-02-22 11:25:00,81.8,71.1,30.11,SE,140,6.9,11.5,70,0.00,CLR,,0.00,397.0,WeatherDisplay:10.37,2013-02-22 16:25:00,
2013-02-22 11:30:00,80.9,70.6,30.10,SSW,202,6.2,11.5,71,0.00,SCT,,0.00,258.0,WeatherDisplay:10.37,2013-02-22 16:30:00,
2013-02-22 11:35:00,80.5,71.0,30.10,SSW,199,6.5,11.5,73,0.00,BKN,,0.00,258.0,WeatherDisplay:10.37,2013-02-22 16:35:00,
2013-02-22 11:40:00,80.4,70.9,30.10,SSE,167,4.6,11.5,73,0.00,BKN,,0.00,410.0,WeatherDisplay:10.37,2013-02-22 16:40:00,
2013-02-22 11:45:00,80.9,71.4,30.10,South,178,4.2,9.2,73,0.00,SCT,,0.00,722.0,WeatherDisplay:10.37,2013-02-22 16:45:00,
2013-02-22 11:50:00,81.0,71.1,30.10,East,96,4.7,11.0,72,0.00,SCT,,0.00,322.0,WeatherDisplay:10.37,2013-02-22 16:50:00,
2013-02-22 11:55:00,81.0,71.1,30.10,SSW,202,3.6,11.5,72,0.00,SCT,,0.00,784.0,WeatherDisplay:10.37,2013-02-22 16:55:00,
2013-02-22 12:00:00,81.3,71.0,30.10,South,180,6.0,10.4,71,0.00,FEW,,0.00,846.0,WeatherDisplay:10.37,2013-02-22 17:00:00,
2013-02-22 12:05:00,81.2,71.3,30.10,East,92,4.5,9.2,72,0.00,CLR,,0.00,861.0,WeatherDisplay:10.37,2013-02-22 17:05:00,
2013-02-22 12:10:00,81.0,71.1,30.09,SSE,155,5.2,9.2,72,0.00,CLR,,0.00,223.0,WeatherDisplay:10.37,2013-02-22 17:10:00,
2013-02-22 12:15:00,80.7,71.2,30.09,SSW,200,3.9,11.5,73,0.00,SCT,,0.00,223.0,WeatherDisplay:10.37,2013-02-22 17:15:00,
2013-02-22 12:20:00,80.9,71.8,30.09,East,86,2.0,5.8,74,0.00,BKN,,0.00,223.0,WeatherDisplay:10.37,2013-02-22 17:20:00,
2013-02-22 12:25:00,81.2,71.7,30.09,SSW,209,3.9,9.0,73,0.00,BKN,,0.00,896.0,WeatherDisplay:10.37,2013-02-22 17:25:00,
2013-02-22 12:30:00,81.6,71.7,30.09,SE,144,5.5,11.5,72,0.00,SCT,,0.00,417.0,WeatherDisplay:10.37,2013-02-22 17:30:00,
2013-02-22 12:35:00,81.5,71.6,30.09,SSW,192,3.9,8.1,72,0.00,SCT,,0.00,243.0,WeatherDisplay:10.37,2013-02-22 17:35:00,
2013-02-22 12:40:00,81.3,71.8,30.08,South,169,3.0,8.1,73,0.00,BKN,,0.00,243.0,WeatherDisplay:10.37,2013-02-22 17:40:00,
2013-02-22 12:45:00,81.2,71.3,30.08,ESE,116,2.7,9.2,72,0.00,BKN,,0.00,281.0,WeatherDisplay:10.37,2013-02-22 17:45:00,
2013-02-22 12:50:00,81.0,71.5,30.08,SE,134,6.0,11.5,73,0.00,BKN,,0.00,939.0,WeatherDisplay:10.37,2013-02-22 17:50:00,
2013-02-22 12:55:00,81.4,72.3,30.08,SE,136,3.3,8.0,74,0.00,FEW,,0.00,940.0,WeatherDisplay:10.37,2013-02-22 17:55:00,
2013-02-22 13:00:00,81.8,71.5,30.07,SSE,160,6.0,15.0,71,0.00,CLR,,0.00,824.0,WeatherDisplay:10.37,2013-02-22 18:00:00,
2013-02-22 13:05:00,82.1,71.8,30.07,South,188,7.1,11.5,71,0.00,CLR,,0.00,805.0,WeatherDisplay:10.37,2013-02-22 18:05:00,
2013-02-22 13:10:00,82.4,72.5,30.07,SSW,200,2.8,10.4,72,0.00,CLR,,0.00,765.0,WeatherDisplay:10.37,2013-02-22 18:10:00,
2013-02-22 13:15:00,82.4,71.6,30.07,SSW,195,5.2,9.2,70,0.00,CLR,,0.00,745.0,WeatherDisplay:10.37,2013-02-22 18:15:00,
2013-02-22 13:20:00,82.4,72.0,30.07,ESE,116,7.0,8.1,71,0.00,FEW,,0.00,744.0,WeatherDisplay:10.37,2013-02-22 18:20:00,
2013-02-22 13:25:00,82.1,70.9,30.06,SSE,147,8.1,16.0,69,0.00,FEW,,0.00,744.0,WeatherDisplay:10.37,2013-02-22 18:25:00,
2013-02-22 13:30:00,82.0,71.2,30.06,SE,139,6.7,11.5,70,0.00,FEW,,0.00,749.0,WeatherDisplay:10.37,2013-02-22 18:30:00,
2013-02-22 13:35:00,81.7,71.4,30.06,SSE,161,5.7,11.5,71,0.00,CLR,,0.00,816.0,WeatherDisplay:10.37,2013-02-22 18:35:00,
2013-02-22 13:40:00,81.5,71.2,30.06,SSE,163,6.7,11.5,71,0.00,CLR,,0.00,749.0,WeatherDisplay:10.37,2013-02-22 18:40:00,
2013-02-22 13:45:00,81.4,71.1,30.06,ESE,119,5.7,11.5,71,0.00,CLR,,0.00,763.0,WeatherDisplay:10.37,2013-02-22 18:45:00,
2013-02-22 13:50:00,81.5,71.2,30.06,SSE,167,5.3,11.5,71,0.00,CLR,,0.00,765.0,WeatherDisplay:10.37,2013-02-22 18:50:00,
2013-02-22 13:55:00,81.5,71.2,30.06,SE,143,7.2,15.0,71,0.00,CLR,,0.00,773.0,WeatherDisplay:10.37,2013-02-22 18:55:00,
2013-02-22 14:00:00,81.6,71.3,30.06,SW,217,8.6,16.1,71,0.00,CLR,,0.00,763.0,WeatherDisplay:10.37,2013-02-22 19:00:00,
2013-02-22 14:05:00,81.2,71.3,30.06,SSW,194,5.1,15.0,72,0.00,CLR,,0.00,763.0,WeatherDisplay:10.37,2013-02-22 19:05:00,
2013-02-22 14:10:00,81.4,71.1,30.06,SSW,198,7.0,12.7,71,0.00,FEW,,0.00,784.0,WeatherDisplay:10.37,2013-02-22 19:10:00,
2013-02-22 14:15:00,81.4,71.1,30.05,SSW,209,7.9,14.0,71,0.00,FEW,,0.00,744.0,WeatherDisplay:10.37,2013-02-22 19:15:00,
2013-02-22 14:20:00,81.1,71.2,30.05,South,178,6.7,9.2,72,0.00,CLR,,0.00,759.0,WeatherDisplay:10.37,2013-02-22 19:20:00,
2013-02-22 14:25:00,81.2,70.9,30.06,SSE,165,7.2,11.5,71,0.00,CLR,,0.00,715.0,WeatherDisplay:10.37,2013-02-22 19:25:00,
2013-02-22 14:30:00,81.4,71.1,30.06,South,186,5.2,11.5,71,0.00,CLR,,0.00,679.0,WeatherDisplay:10.37,2013-02-22 19:30:00,
2013-02-22 14:35:00,81.5,71.2,30.05,East,98,2.6,9.2,71,0.00,CLR,,0.00,629.0,WeatherDisplay:10.37,2013-02-22 19:35:00,
2013-02-22 14:40:00,81.7,71.0,30.05,SE,130,6.6,8.1,70,0.00,CLR,,0.00,619.0,WeatherDisplay:10.37,2013-02-22 19:40:00,
2013-02-22 14:45:00,81.7,71.4,30.05,SSW,196,5.0,10.4,71,0.00,CLR,,0.00,638.0,WeatherDisplay:10.37,2013-02-22 19:45:00,
2013-02-22 14:50:00,82.0,71.7,30.05,ENE,78,5.2,11.0,71,0.00,CLR,,0.00,615.0,WeatherDisplay:10.37,2013-02-22 19:50:00,
2013-02-22 14:55:00,82.3,71.5,30.05,ESE,113,5.6,9.2,70,0.00,CLR,,0.00,628.0,WeatherDisplay:10.37,2013-02-22 19:55:00,
2013-02-22 15:00:00,82.2,71.0,30.05,SSE,154,5.1,10.4,69,0.00,CLR,,0.00,659.0,WeatherDisplay:10.37,2013-02-22 20:00:00,
2013-02-22 15:05:00,81.6,71.3,30.05,SSW,208,6.3,10.4,71,0.00,CLR,,0.00,584.0,WeatherDisplay:10.37,2013-02-22 20:05:00,
2013-02-22 15:10:00,81.1,70.8,30.05,South,173,7.7,16.1,71,0.00,CLR,,0.00,587.0,WeatherDisplay:10.37,2013-02-22 20:10:00,
2013-02-22 15:15:00,81.2,70.9,30.05,SE,144,5.3,9.2,71,0.00,CLR,,0.00,213.0,WeatherDisplay:10.37,2013-02-22 20:15:00,
2013-02-22 15:20:00,80.8,70.5,30.05,SSW,194,6.2,11.5,71,0.00,FEW,,0.00,512.0,WeatherDisplay:10.37,2013-02-22 20:20:00,
2013-02-22 15:25:00,80.7,70.8,30.05,East,85,5.1,9.2,72,0.00,FEW,,0.00,490.0,WeatherDisplay:10.37,2013-02-22 20:25:00,
2013-02-22 15:30:00,80.9,71.0,30.04,East,89,2.1,3.5,72,0.00,CLR,,0.00,457.0,WeatherDisplay:10.37,2013-02-22 20:30:00,
2013-02-22 15:35:00,81.2,71.3,30.04,ESE,114,3.9,6.9,72,0.00,FEW,,0.00,455.0,WeatherDisplay:10.37,2013-02-22 20:35:00,
2013-02-22 15:40:00,81.2,71.3,30.04,SSE,153,4.0,11.5,72,0.00,CLR,,0.00,438.0,WeatherDisplay:10.37,2013-02-22 20:40:00,
2013-02-22 15:45:00,81.1,71.2,30.04,South,174,4.0,9.2,72,0.00,CLR,,0.00,429.0,WeatherDisplay:10.37,2013-02-22 20:45:00,
2013-02-22 15:50:00,80.9,71.0,30.05,South,180,4.1,9.2,72,0.00,FEW,,0.00,116.0,WeatherDisplay:10.37,2013-02-22 20:50:00,
2013-02-22 15:55:00,80.7,70.8,30.05,South,169,4.4,9.2,72,0.00,FEW,,0.00,350.0,WeatherDisplay:10.37,2013-02-22 20:55:00,
2013-02-22 16:00:00,80.2,70.8,30.05,SSE,150,2.6,7.0,73,0.00,FEW,,0.00,380.0,WeatherDisplay:10.37,2013-02-22 21:00:00,
2013-02-22 16:05:00,79.9,70.9,30.05,East,88,4.4,5.8,74,0.00,FEW,,0.00,91.0,WeatherDisplay:10.37,2013-02-22 21:05:00,
2013-02-22 16:10:00,79.3,70.7,30.05,South,184,5.2,8.1,75,0.00,SCT,,0.00,91.0,WeatherDisplay:10.37,2013-02-22 21:10:00,
2013-02-22 16:15:00,78.7,70.5,30.05,SSE,161,4.8,11.5,76,0.00,BKN,,0.00,134.0,WeatherDisplay:10.37,2013-02-22 21:15:00,
2013-02-22 16:20:00,78.3,70.5,30.04,South,182,5.2,10.4,77,0.00,BKN,,0.00,118.0,WeatherDisplay:10.37,2013-02-22 21:20:00,
2013-02-22 16:25:00,78.1,70.3,30.05,South,186,7.2,11.5,77,0.00,BKN,,0.00,72.0,WeatherDisplay:10.37,2013-02-22 21:25:00,
2013-02-22 16:30:00,77.9,70.1,30.04,South,174,4.1,10.0,77,0.00,BKN,,0.00,58.0,WeatherDisplay:10.37,2013-02-22 21:30:00,
2013-02-22 16:35:00,77.8,70.4,30.04,South,189,3.7,5.0,78,0.00,BKN,,0.00,56.0,WeatherDisplay:10.37,2013-02-22 21:35:00,
2013-02-22 16:40:00,77.6,70.2,30.04,SSE,159,5.3,12.7,78,0.00,BKN,,0.00,53.0,WeatherDisplay:10.37,2013-02-22 21:40:00,
2013-02-22 16:45:00,77.4,70.0,30.04,South,169,5.0,7.0,78,0.00,BKN,,0.00,56.0,WeatherDisplay:10.37,2013-02-22 21:45:00,
2013-02-22 16:50:00,77.2,70.2,30.04,SSE,155,4.1,11.5,79,0.00,BKN,,0.00,49.0,WeatherDisplay:10.37,2013-02-22 21:50:00,
2013-02-22 16:55:00,77.0,70.0,30.04,SE,143,3.7,6.9,79,0.00,BKN,,0.00,49.0,WeatherDisplay:10.37,2013-02-22 21:55:00,
2013-02-22 17:00:00,76.9,69.9,30.04,ESE,107,4.7,6.9,79,0.00,BKN,,0.00,46.0,WeatherDisplay:10.37,2013-02-22 22:00:00,
2013-02-22 17:05:00,76.8,69.8,30.04,South,185,3.3,9.2,79,0.00,BKN,,0.00,33.0,WeatherDisplay:10.37,2013-02-22 22:05:00,
2013-02-22 17:10:00,76.7,69.7,30.04,South,184,5.4,11.5,79,0.00,BKN,,0.00,33.0,WeatherDisplay:10.37,2013-02-22 22:10:00,
2013-02-22 17:15:00,76.7,70.1,30.04,South,181,4.0,11.0,80,0.00,BKN,,0.00,30.0,WeatherDisplay:10.37,2013-02-22 22:15:00,
2013-02-22 17:20:00,76.7,70.1,30.04,SSE,165,5.7,9.2,80,0.00,BKN,,0.00,30.0,WeatherDisplay:10.37,2013-02-22 22:20:00,
2013-02-22 17:25:00,76.7,70.1,30.04,ESE,113,4.0,12.7,80,0.00,BKN,,0.00,35.0,WeatherDisplay:10.37,2013-02-22 22:25:00,
2013-02-22 17:30:00,76.5,70.2,30.04,SE,142,3.2,5.8,81,0.00,BKN,,0.00,25.0,WeatherDisplay:10.37,2013-02-22 22:30:00,
2013-02-22 17:35:00,76.3,70.0,30.05,ESE,121,2.9,4.0,81,0.00,BKN,,0.00,28.0,WeatherDisplay:10.37,2013-02-22 22:35:00,
2013-02-22 17:40:00,76.2,70.3,30.05,SSW,198,1.2,3.0,82,0.00,BKN,,0.00,23.0,WeatherDisplay:10.37,2013-02-22 22:40:00,
2013-02-22 17:45:00,76.0,69.7,30.05,SSW,199,5.3,5.8,81,0.00,BKN,,0.00,21.0,WeatherDisplay:10.37,2013-02-22 22:45:00,
2013-02-22 17:50:00,75.7,69.8,30.05,ESE,121,2.4,3.5,82,0.00,BKN,,0.00,18.0,WeatherDisplay:10.37,2013-02-22 22:50:00,
2013-02-22 17:55:00,75.6,69.7,30.05,SSW,193,1.7,4.6,82,0.00,BKN,,0.00,14.0,WeatherDisplay:10.37,2013-02-22 22:55:00,
2013-02-22 18:00:00,75.4,69.5,30.05,SSE,161,4.4,5.8,82,0.00,BKN,,0.00,12.0,WeatherDisplay:10.37,2013-02-22 23:00:00,
2013-02-22 18:05:00,75.2,69.3,30.05,SSE,168,2.6,8.1,82,0.00,BKN,,0.00,9.0,WeatherDisplay:10.37,2013-02-22 23:05:00,
2013-02-22 18:10:00,75.0,69.5,30.05,NE,42,4.0,11.5,83,0.00,SCT,,0.00,7.0,WeatherDisplay:10.37,2013-02-22 23:10:00,
2013-02-22 18:15:00,74.9,69.4,30.06,South,182,3.3,4.0,83,0.00,OVC,,0.00,0.0,WeatherDisplay:10.37,2013-02-22 23:15:00,
2013-02-22 18:20:00,74.8,69.6,30.05,South,190,2.5,6.9,84,0.00,OVC,,0.00,0.0,WeatherDisplay:10.37,2013-02-22 23:20:00,
2013-02-22 18:25:00,74.7,69.5,30.06,South,177,3.0,5.0,84,0.00,OVC,,0.00,0.0,WeatherDisplay:10.37,2013-02-22 23:25:00,
2013-02-22 18:30:00,74.6,69.4,30.06,SSE,165,2.2,3.5,84,0.00,OVC,,0.00,0.0,WeatherDisplay:10.37,2013-02-22 23:30:00,
2013-02-22 18:35:00,74.5,69.7,30.06,ESE,121,4.5,9.2,85,0.00,OVC,,0.00,0.0,WeatherDisplay:10.37,2013-02-22 23:35:00,
2013-02-22 18:40:00,74.4,69.6,30.06,SSW,207,2.9,5.8,85,0.00,OVC,,0.00,0.0,WeatherDisplay:10.37,2013-02-22 23:40:00,
2013-02-22 18:45:00,74.4,69.6,30.05,South,179,1.8,5.8,85,0.00,OVC,,0.00,0.0,WeatherDisplay:10.37,2013-02-22 23:45:00,
2013-02-22 18:50:00,74.3,69.5,30.06,SSW,196,2.4,3.5,85,0.00,CLR,,0.00,0.0,WeatherDisplay:10.37,2013-02-22 23:50:00,
2013-02-22 18:55:00,74.3,69.5,30.05,SE,141,1.8,6.9,85,0.00,CLR,,0.00,0.0,WeatherDisplay:10.37,2013-02-22 23:55:00,
2013-02-22 19:00:00,74.3,69.8,30.06,South,177,3.4,6.9,86,0.00,CLR,,0.00,0.0,WeatherDisplay:10.37,2013-02-23 00:00:00,
2013-02-22 19:05:00,74.2,69.7,30.06,SE,128,3.1,4.6,86,0.00,CLR,,0.00,0.0,WeatherDisplay:10.37,2013-02-23 00:05:00,
2013-02-22 19:10:00,74.2,70.1,30.06,SSW,194,0.4,0.0,87,0.00,CLR,,0.00,0.0,WeatherDisplay:10.37,2013-02-23 00:10:00,
2013-02-22 19:15:00,74.1,70.0,30.06,South,169,1.7,6.9,87,0.00,CLR,,0.00,0.0,WeatherDisplay:10.37,2013-02-23 00:15:00,
2013-02-22 19:20:00,74.1,70.0,30.06,ESE,118,0.8,2.0,87,0.00,CLR,,0.00,0.0,WeatherDisplay:10.37,2013-02-23 00:20:00,
2013-02-22 19:25:00,74.0,69.9,30.06,SE,144,0.8,3.5,87,0.00,CLR,,0.00,0.0,WeatherDisplay:10.37,2013-02-23 00:25:00,
2013-02-22 19:30:00,74.0,69.9,30.06,East,99,2.7,4.6,87,0.00,CLR,,0.00,0.0,WeatherDisplay:10.37,2013-02-23 00:30:00,
2013-02-22 19:35:00,74.0,69.5,30.06,SE,137,3.1,6.0,86,0.00,CLR,,0.00,0.0,WeatherDisplay:10.37,2013-02-23 00:35:00,
2013-02-22 19:40:00,74.0,69.5,30.06,South,175,0.0,2.3,86,0.00,CLR,,0.00,0.0,WeatherDisplay:10.37,2013-02-23 00:40:00,
2013-02-22 19:45:00,74.0,69.5,30.06,SE,133,4.7,9.2,86,0.00,CLR,,0.00,0.0,WeatherDisplay:10.37,2013-02-23 00:45:00,
2013-02-22 19:50:00,74.1,69.6,30.06,SE,126,4.6,10.4,86,0.00,CLR,,0.00,0.0,WeatherDisplay:10.37,2013-02-23 00:50:00,
2013-02-22 19:55:00,74.1,69.6,30.06,ESE,119,2.3,6.9,86,0.00,CLR,,0.00,0.0,WeatherDisplay:10.37,2013-02-23 00:55:00,
2013-02-22 20:00:00,74.1,69.6,30.06,SE,129,3.8,11.5,86,0.00,CLR,,0.00,0.0,WeatherDisplay:10.37,2013-02-23 01:00:00,
2013-02-22 20:05:00,74.1,69.6,30.06,South,182,2.1,6.9,86,0.00,CLR,,0.00,0.0,WeatherDisplay:10.37,2013-02-23 01:05:00,
2013-02-22 20:10:00,74.0,69.5,30.06,SE,134,0.9,5.8,86,0.00,CLR,,0.00,0.0,WeatherDisplay:10.37,2013-02-23 01:10:00,
2013-02-22 20:15:00,74.1,69.6,30.06,ESE,103,5.3,8.0,86,0.00,CLR,,0.00,0.0,WeatherDisplay:10.37,2013-02-23 01:15:00,
2013-02-22 20:20:00,74.2,69.7,30.06,ESE,115,3.0,5.8,86,0.00,CLR,,0.00,0.0,WeatherDisplay:10.37,2013-02-23 01:20:00,
2013-02-22 20:25:00,74.2,69.7,30.07,ESE,116,2.8,5.8,86,0.00,CLR,,0.00,0.0,WeatherDisplay:10.37,2013-02-23 01:25:00,
2013-02-22 20:30:00,74.1,69.6,30.07,East,98,3.3,7.0,86,0.00,CLR,,0.00,0.0,WeatherDisplay:10.37,2013-02-23 01:30:00,
2013-02-22 20:35:00,74.0,69.5,30.07,SSE,165,2.4,5.8,86,0.00,CLR,,0.00,0.0,WeatherDisplay:10.37,2013-02-23 01:35:00,
2013-02-22 20:40:00,74.1,69.6,30.07,ESE,117,4.2,11.0,86,0.00,CLR,,0.00,0.0,WeatherDisplay:10.37,2013-02-23 01:40:00,
2013-02-22 20:45:00,74.2,69.7,30.07,SE,126,4.2,8.1,86,0.00,CLR,,0.00,0.0,WeatherDisplay:10.37,2013-02-23 01:45:00,
2013-02-22 20:50:00,74.2,69.7,30.07,SE,142,1.3,8.1,86,0.00,CLR,,0.00,0.0,WeatherDisplay:10.37,2013-02-23 01:50:00,
2013-02-22 20:55:00,74.2,69.7,30.07,East,96,4.3,7.0,86,0.00,CLR,,0.00,0.0,WeatherDisplay:10.37,2013-02-23 01:55:00,
2013-02-22 21:00:00,74.1,69.6,30.07,SSE,168,2.9,4.0,86,0.00,CLR,,0.00,0.0,WeatherDisplay:10.37,2013-02-23 02:00:00,
2013-02-22 21:05:00,74.1,69.6,30.07,SSW,207,3.1,9.2,86,0.00,CLR,,0.00,0.0,WeatherDisplay:10.37,2013-02-23 02:05:00,
2013-02-22 21:10:00,74.2,69.7,30.07,ESE,121,5.3,10.4,86,0.00,CLR,,0.00,0.0,WeatherDisplay:10.37,2013-02-23 02:10:00,
2013-02-22 21:15:00,74.3,69.8,30.07,SE,128,3.4,9.2,86,0.00,CLR,,0.00,0.0,WeatherDisplay:10.37,2013-02-23 02:15:00,
2013-02-22 21:20:00,74.2,69.7,30.07,ESE,121,5.3,11.5,86,0.00,CLR,,0.00,0.0,WeatherDisplay:10.37,2013-02-23 02:20:00,
2013-02-22 21:25:00,74.3,69.8,30.07,ESE,120,5.2,10.4,86,0.00,CLR,,0.00,0.0,WeatherDisplay:10.37,2013-02-23 02:25:00,
2013-02-22 21:30:00,74.3,69.8,30.07,SE,130,3.8,10.4,86,0.00,CLR,,0.00,0.0,WeatherDisplay:10.37,2013-02-23 02:30:00,
2013-02-22 21:35:00,74.3,69.8,30.07,SE,146,2.8,11.5,86,0.00,CLR,,0.00,0.0,WeatherDisplay:10.37,2013-02-23 02:35:00,
2013-02-22 21:40:00,74.2,69.7,30.07,SSE,153,3.1,4.6,86,0.00,CLR,,0.00,0.0,WeatherDisplay:10.37,2013-02-23 02:40:00,
2013-02-22 21:45:00,74.2,69.7,30.07,ESE,117,3.7,4.6,86,0.00,CLR,,0.00,0.0,WeatherDisplay:10.37,2013-02-23 02:45:00,
2013-02-22 21:50:00,74.2,69.7,30.07,ESE,121,2.3,8.1,86,0.00,CLR,,0.00,0.0,WeatherDisplay:10.37,2013-02-23 02:50:00,
2013-02-22 21:55:00,74.2,69.7,30.07,SE,139,3.0,4.6,86,0.00,CLR,,0.00,0.0,WeatherDisplay:10.37,2013-02-23 02:55:00,
2013-02-22 22:00:00,74.3,69.8,30.07,ESE,105,4.6,9.2,86,0.00,CLR,,0.00,0.0,WeatherDisplay:10.37,2013-02-23 03:00:00,
2013-02-22 22:05:00,74.3,69.8,30.07,SSE,147,3.6,6.9,86,0.00,CLR,,0.00,0.0,WeatherDisplay:10.37,2013-02-23 03:05:00,
2013-02-22 22:10:00,74.4,69.9,30.07,ESE,123,3.1,6.9,86,0.00,CLR,,0.00,0.0,WeatherDisplay:10.37,2013-02-23 03:10:00,
2013-02-22 22:15:00,74.3,69.8,30.07,SE,126,2.9,4.0,86,0.00,CLR,,0.00,0.0,WeatherDisplay:10.37,2013-02-23 03:15:00,
2013-02-22 22:20:00,74.3,69.8,30.07,ESE,119,3.1,9.0,86,0.00,CLR,,0.00,0.0,WeatherDisplay:10.37,2013-02-23 03:20:00,
2013-02-22 22:25:00,74.3,70.2,30.07,ESE,120,1.4,9.2,87,0.00,CLR,,0.00,0.0,WeatherDisplay:10.37,2013-02-23 03:25:00,
2013-02-22 22:30:00,74.3,69.8,30.07,ESE,111,4.6,10.4,86,0.00,CLR,,0.00,0.0,WeatherDisplay:10.37,2013-02-23 03:30:00,
2013-02-22 22:35:00,74.3,69.8,30.07,East,90,2.6,10.4,86,0.00,CLR,,0.00,0.0,WeatherDisplay:10.37,2013-02-23 03:35:00,
2013-02-22 22:40:00,74.2,69.7,30.07,SE,143,4.5,5.8,86,0.00,CLR,,0.00,0.0,WeatherDisplay:10.37,2013-02-23 03:40:00,
2013-02-22 22:45:00,74.2,70.1,30.07,ESE,121,1.7,4.6,87,0.00,CLR,,0.00,0.0,WeatherDisplay:10.37,2013-02-23 03:45:00,
2013-02-22 22:50:00,74.3,69.8,30.07,SW,236,6.2,8.1,86,0.00,CLR,,0.00,0.0,WeatherDisplay:10.37,2013-02-23 03:50:00,
2013-02-22 22:55:00,74.3,69.8,30.07,SSE,163,4.7,10.4,86,0.00,CLR,,0.00,0.0,WeatherDisplay:10.37,2013-02-23 03:55:00,
2013-02-22 23:00:00,74.3,69.8,30.07,ESE,103,2.7,4.6,86,0.00,CLR,,0.00,0.0,WeatherDisplay:10.37,2013-02-23 04:00:00,
2013-02-22 23:05:00,74.2,69.7,30.07,SE,138,3.9,10.0,86,0.00,CLR,,0.00,0.0,WeatherDisplay:10.37,2013-02-23 04:05:00,
2013-02-22 23:10:00,74.2,69.7,30.06,SSW,202,2.8,8.1,86,0.00,CLR,,0.00,0.0,WeatherDisplay:10.37,2013-02-23 04:10:00,
2013-02-22 23:15:00,74.1,69.6,30.06,SE,143,6.1,11.5,86,0.00,CLR,,0.00,0.0,WeatherDisplay:10.37,2013-02-23 04:15:00,
2013-02-22 23:20:00,74.1,69.6,30.06,ESE,111,2.9,10.4,86,0.00,CLR,,0.00,0.0,WeatherDisplay:10.37,2013-02-23 04:20:00,
2013-02-22 23:25:00,74.2,69.7,30.06,East,94,3.7,9.2,86,0.00,CLR,,0.00,0.0,WeatherDisplay:10.37,2013-02-23 04:25:00,
2013-02-22 23:30:00,74.2,69.7,30.06,South,188,3.5,9.2,86,0.00,CLR,,0.00,0.0,WeatherDisplay:10.37,2013-02-23 04:30:00,
2013-02-22 23:35:00,74.2,69.7,30.06,ESE,123,4.1,8.1,86,0.00,CLR,,0.00,0.0,WeatherDisplay:10.37,2013-02-23 04:35:00,
2013-02-22 23:40:00,74.2,69.7,30.06,SE,144,2.9,10.4,86,0.00,CLR,,0.00,0.0,WeatherDisplay:10.37,2013-02-23 04:40:00,
2013-02-22 23:45:00,74.1,69.6,30.06,South,175,2.2,5.8,86,0.00,CLR,,0.00,0.0,WeatherDisplay:10.37,2013-02-23 04:45:00,
2013-02-22 23:50:00,74.0,69.5,30.06,ESE,123,3.0,4.6,86,0.00,CLR,,0.00,0.0,WeatherDisplay:10.37,2013-02-23 04:50:00,
2013-02-22 23:55:00,74.0,69.5,30.06,ESE,112,1.9,3.5,86,0.00,CLR,,0.00,0.0,WeatherDisplay:10.37,2013-02-23 04:55:00,